Weather History for Idabel, OK

Change the Weather History Date:

Tuesday, February 5, 2013

  Actual Average (KDEQ) Record (KDEQ)
Temperature  
Mean Temperature 58 °F 43 °F  
Max Temperature 69 °F 56 °F 75 °F (2008)
Min Temperature 46 °F 30 °F 6 °F (1996)
Degree Days  
Heating Degree Days 6 22  
Month to date heating degree days 113  
Since 1 July heating degree days 2049  
Cooling Degree Days 0 0  
Month to date cooling degree days 0  
Year to date cooling degree days 1  
Growing Degree Days 8 (Base 50)    
Moisture  
Dew Point 49 °F    
Average Humidity 83    
Maximum Humidity 100    
Minimum Humidity 49    
Precipitation  
Precipitation 0.00 in 0.16 in 1.68 in (1964)
Month to date precipitation 0.80  
Year to date precipitation 4.12  
Snow  
Snow 0.00 in - - ()
Month to date snowfall  
Since 1 July snowfall  
Snow Depth -    
Sea Level Pressure  
Sea Level Pressure 29.99 in    
Wind  
Wind Speed 3 mph (East)    
Max Wind Speed 7 mph    
Max Gust Speed -    
Visibility 4 miles    
Events      
T = Trace of Precipitation, MM = Missing Value Source: NWS Daily Summary

Daily Weather History Graph

Daily Weather History Graph

Search for Another Location

Airport:

Trip Planner

Search our weather history database for the weather conditions in past years. The results will help you decide how hot, cold, wet, or windy it might be!

Date:

Astronomy

Feb. 05, 2013 Rise Set
Actual Time 7:12 AM CST 5:54 PM CST
Civil Twilight 6:46 AM CST 6:20 PM CST
Nautical Twilight 6:17 AM CST 6:50 PM CST
Astronomical Twilight 5:48 AM CST 7:19 PM CST
Moon 2:50 AM CST (2/5) 1:17 PM CST (2/5)
Length of Visible Light 11h 33m
Length of Day
10h 41m
Waning Crescent, 26% of the Moon is Illuminated
Feb 5
Waning Crescent
Feb 10
New
Feb 17
First Quarter
Feb 25
Full
Mar 4
Last Quarter

Hourly Weather History & Observations

Time (CST) Temp. Windchill Dew Point Humidity Pressure Visibility Wind Dir Wind Speed Gust Speed Precip Events Conditions
12:15 AM 48.2 °F - 46.4 °F 93% 29.95 in 0.2 mi ENE 4.6 mph - N/A   Overcast
12:35 AM 48.2 °F - 46.4 °F 93% 29.95 in 0.2 mi ENE 4.6 mph - N/A   Overcast
12:55 AM 48.2 °F - 46.4 °F 93% 29.95 in 0.2 mi ENE 5.8 mph - N/A   Overcast
1:15 AM 50.0 °F - 46.4 °F 87% 29.94 in 0.5 mi East 5.8 mph - N/A   Overcast
1:35 AM 50.0 °F - 46.4 °F 87% 29.94 in 0.5 mi East 6.9 mph - N/A   Overcast
1:55 AM 50.0 °F - 46.4 °F 87% 29.94 in 0.5 mi East 5.8 mph - N/A   Overcast
2:15 AM 50.0 °F - 46.4 °F 87% 29.94 in 0.5 mi East 4.6 mph - N/A   Overcast
2:35 AM 50.0 °F - 46.4 °F 87% 29.93 in 0.5 mi ENE 5.8 mph - N/A   Overcast
2:55 AM 50.0 °F - 46.4 °F 87% 29.93 in 0.2 mi East 4.6 mph - N/A   Overcast
3:15 AM 50.0 °F - 46.4 °F 87% 29.93 in 0.2 mi Calm Calm - N/A   Overcast
3:35 AM 50.0 °F - 46.4 °F 87% 29.93 in 0.2 mi Calm Calm - N/A   Overcast
3:55 AM 50.0 °F - 46.4 °F 87% 29.93 in 0.2 mi Calm Calm - N/A   Overcast
4:15 AM 50.0 °F - 46.4 °F 87% 29.93 in 0.2 mi NE 3.5 mph - N/A   Overcast
4:35 AM 50.0 °F - 46.4 °F 87% 29.94 in 0.2 mi Calm Calm - N/A   Overcast
4:55 AM 50.0 °F - 46.4 °F 87% 29.94 in 0.2 mi ENE 3.5 mph - N/A   Overcast
5:15 AM 50.0 °F - 46.4 °F 87% 29.94 in 0.2 mi ENE 3.5 mph - N/A   Overcast
5:35 AM 50.0 °F - 46.4 °F 87% 29.94 in 0.2 mi East 5.8 mph - N/A   Overcast
5:55 AM 50.0 °F - 46.4 °F 87% 29.95 in 0.2 mi East 4.6 mph - N/A   Overcast
6:15 AM 50.0 °F - 46.4 °F 87% 29.96 in 0.2 mi ENE 3.5 mph - N/A   Overcast
6:35 AM 50.0 °F - 48.2 °F 94% 29.96 in 0.2 mi Calm Calm - N/A   Overcast
6:55 AM 50.0 °F - 48.2 °F 94% 29.97 in 0.2 mi Calm Calm - N/A   Overcast
7:15 AM 50.0 °F - 48.2 °F 94% 29.98 in 0.2 mi Calm Calm - N/A   Overcast
7:35 AM 50.0 °F - 48.2 °F 94% 29.99 in 0.2 mi Calm Calm - N/A   Overcast
7:55 AM 50.0 °F - 48.2 °F 94% 30.00 in 0.2 mi NE 3.5 mph - N/A   Overcast
8:15 AM 50.0 °F - 50.0 °F 100% 30.01 in 0.5 mi ENE 4.6 mph - N/A   Overcast
8:35 AM 50.0 °F - 48.2 °F 94% 30.02 in 0.2 mi ENE 3.5 mph - N/A   Overcast
8:55 AM 50.0 °F - 48.2 °F 94% 30.02 in 0.2 mi SE 3.5 mph - N/A   Overcast
9:15 AM 50.0 °F - 50.0 °F 100% 30.02 in 0.2 mi Calm Calm - N/A   Overcast
9:35 AM 50.0 °F - 50.0 °F 100% 30.03 in 0.5 mi Calm Calm - N/A   Overcast
9:55 AM 51.8 °F - 50.0 °F 94% 30.04 in 0.5 mi Calm Calm - N/A   Overcast
10:15 AM 51.8 °F - 50.0 °F 94% 30.04 in 0.5 mi Calm Calm - N/A   Overcast
10:35 AM 51.8 °F - 50.0 °F 94% 30.05 in 0.5 mi Calm Calm - N/A   Overcast
10:55 AM 51.8 °F - 50.0 °F 94% 30.05 in 1.5 mi Calm Calm - N/A   Overcast
11:15 AM 53.6 °F - 51.8 °F 94% 30.05 in 7.0 mi ENE 4.6 mph - N/A   Overcast
11:35 AM 53.6 °F - 51.8 °F 94% 30.04 in 7.0 mi SE 4.6 mph - N/A   Overcast
11:55 AM 53.6 °F - 51.8 °F 94% 30.04 in 10.0 mi Calm Calm - N/A   Overcast
12:15 PM 55.4 °F - 53.6 °F 94% 30.04 in 10.0 mi Calm Calm - N/A   Overcast
12:35 PM 55.4 °F - 51.8 °F 88% 30.03 in 10.0 mi Calm Calm - N/A   Overcast
12:55 PM 59.0 °F - 53.6 °F 82% 30.02 in 10.0 mi Calm Calm - N/A   Mostly Cloudy
1:15 PM 62.6 °F - 51.8 °F 68% 30.01 in 10.0 mi Calm Calm - N/A   Scattered Clouds
1:35 PM 64.4 °F - 50.0 °F 59% 30.00 in 10.0 mi South 3.5 mph - N/A   Clear
1:55 PM 64.4 °F - 50.0 °F 59% 29.99 in 10.0 mi Calm Calm - N/A   Clear
2:15 PM 66.2 °F - 50.0 °F 56% 29.99 in 10.0 mi Calm Calm - N/A   Clear
2:35 PM 68.0 °F - 50.0 °F 52% 29.99 in 10.0 mi Calm Calm - N/A   Clear
2:55 PM 68.0 °F - 50.0 °F 52% 29.98 in 10.0 mi South 3.5 mph - N/A   Clear
3:15 PM 68.0 °F - 51.8 °F 56% 29.98 in 10.0 mi Calm Calm - N/A   Clear
3:35 PM 69.8 °F - 50.0 °F 49% 29.98 in 10.0 mi Calm Calm - N/A   Clear
3:55 PM 69.8 °F - 50.0 °F 49% 29.98 in 10.0 mi Calm Calm - N/A   Clear
4:15 PM 69.8 °F - 51.8 °F 53% 29.97 in 10.0 mi South 3.5 mph - N/A   Clear
4:35 PM 68.0 °F - 50.0 °F 52% 29.98 in 10.0 mi Calm Calm - N/A   Clear
4:55 PM 68.0 °F - 50.0 °F 52% 29.98 in 10.0 mi Calm Calm - N/A   Scattered Clouds
5:15 PM 64.4 °F - 50.0 °F 59% 29.98 in 10.0 mi Calm Calm - N/A   Scattered Clouds
5:55 PM 60.8 °F - 50.0 °F 68% 29.99 in 10.0 mi Calm Calm - N/A   Clear
6:15 PM 59.0 °F - 50.0 °F 72% 29.99 in 10.0 mi WSW 3.5 mph - N/A   Scattered Clouds
6:35 PM 57.2 °F - 50.0 °F 77% 29.99 in 10.0 mi Calm Calm - N/A   Mostly Cloudy
6:55 PM 57.2 °F - 50.0 °F 77% 30.00 in 10.0 mi SW 3.5 mph - N/A   Scattered Clouds
7:15 PM 55.4 °F - 50.0 °F 82% 30.01 in 10.0 mi Calm Calm - N/A   Clear
7:35 PM 53.6 °F - 50.0 °F 88% 30.02 in 10.0 mi Calm Calm - N/A   Clear
8:15 PM 53.6 °F - 50.0 °F 88% 30.03 in 10.0 mi Calm Calm - N/A   Clear
8:35 PM 53.6 °F - 50.0 °F 88% 30.03 in 10.0 mi Calm Calm - N/A   Clear
8:55 PM 51.8 °F - 48.2 °F 88% 30.04 in 5.0 mi Calm Calm - N/A   Clear
9:15 PM 50.0 °F - 48.2 °F 94% 30.04 in 5.0 mi Calm Calm - N/A   Clear
9:35 PM 50.0 °F - 46.4 °F 87% 30.04 in 1.8 mi Calm Calm - N/A   Unknown
9:55 PM 50.0 °F - 46.4 °F 87% 30.05 in 1.2 mi Calm Calm - N/A   Mostly Cloudy
10:15 PM 50.0 °F - 48.2 °F 94% 30.05 in 1.0 mi NNE 3.5 mph - N/A   Mostly Cloudy
10:35 PM 50.0 °F - 46.4 °F 87% 30.05 in 5.0 mi NNE 5.8 mph - N/A   Scattered Clouds
10:55 PM 51.8 °F - 50.0 °F 94% 30.04 in 7.0 mi ENE 4.6 mph - N/A   Scattered Clouds
11:15 PM 50.0 °F - 46.4 °F 87% 30.04 in 2.5 mi ENE 4.6 mph - N/A   Clear
11:35 PM 48.2 °F - 46.4 °F 93% 30.04 in 2.5 mi Calm Calm - N/A   Clear
11:55 PM 46.4 °F 44.3 °F 44.6 °F 93% 30.04 in 1.8 mi East 4.6 mph - N/A   Unknown